EUTELSAT 36B

Last updated on Jan. 26, 2020, 4:40 a.m. UTC

1 36101U 09065A   20025.77869076  .00000148  00000-0  00000+0 0  9992
2 36101   0.0640  15.5473 0004450 289.0291 136.1712  1.00269710 37403
UTC
Height (km)
Latitude
Longitude
Inclination
Orbital Period
UTC large
Height (km)
Speed (km/s)
/
Latitude / Longitude
Inclination (degrees)
Orbital Period (minutes)
Azimuth
Elevation
Range (km)
Doppler Factor
iOS Compass Heading
iOS Angle

Next 30 passes for location: Hong Kong

Rise time Rise Azimuth (degrees) Set time Set Azimuth (degrees) Duration Max altitude (degrees)

No matching passes for this satellites